{"data":{"norad_id":60349,"intl_designator":"2024-136W","name":"STARLINK-32181","alt_names":[],"object_type":"PAYLOAD","status":"ACTIVE","operator":null,"country":"US","launch_date":"2024-08-02","launch_site_code":"AFETR","launch_vehicle":null,"mission":null,"orbit_class":"UNKNOWN","rcs_meters":null,"size_class":null,"mass_kg":null,"dimensions":null,"purposes":["comms"],"wikipedia_slug":null,"has_3d_model":false,"image_url":null,"decayed_at":null,"tle_current":{"epoch":"2026-09-21T07:42:26.671392Z","epoch_age_seconds":114686,"freshness":"FRESH","line1":"1 60349U 24136W   26264.32114203  .00001447  00000+0  53983-4 0  9991","line2":"2 60349  53.1573 242.2216 0002644  75.5209 284.6087 15.34397605119684","mean_motion":15.34397605,"eccentricity":0.0002644,"inclination_deg":53.1573,"raan_deg":242.2216,"arg_perigee_deg":75.5209,"mean_anomaly_deg":284.6087,"bstar":5.3983e-5,"rev_number":11968,"period_min":93.847904565779,"perigee_km":460.90163861946,"apogee_km":464.51907870272,"semimajor_km":6840.8473586611,"source":"CELESTRAK","updated_at":"2026-09-22T09:00:49.222890Z"}}}